BAW695 LOWW-EGLL

Flight info

Callsign BAW695
Flight time N/A
Altitude 36000
Route BUWUT DCT DITIS DCT IPDUL DCT OKG DCT VELIS DCT SWALM DCT TIVUN DCT BREDA DCT ABNED L980 LOGAN
Aircraft A320/M-SDE3FGHIRWY/LB1

Departure

Time 2026-05-04 14:48
Airport Vienna International Airport (LOWW)

Arrival

Time N/A
Airport London Heathrow Airport (EGLL)
Time Latitude Longitude Altitude Speed Heading
2026-05-04 14:22 48.11849 16.56005 609 ft 0 kts 124°
2026-05-04 14:39 48.11861 16.55979 625 ft 4 kts 124°
2026-05-04 14:39 48.11877 16.55945 620 ft 4 kts 128°
2026-05-04 14:39 48.11895 16.55917 625 ft 4 kts 154°
2026-05-04 14:40 48.11911 16.55912 620 ft 0 kts 206°
2026-05-04 14:41 48.11904 16.55907 620 ft 2 kts 206°
2026-05-04 14:42 48.11844 16.55864 609 ft 7 kts 206°
2026-05-04 14:42 48.11791 16.55833 609 ft 9 kts 185°
2026-05-04 14:42 48.11749 16.55900 612 ft 10 kts 115°
2026-05-04 14:43 48.11714 16.56009 621 ft 13 kts 116°
2026-05-04 14:43 48.11667 16.56150 619 ft 17 kts 116°
2026-05-04 14:43 48.11613 16.56316 613 ft 18 kts 116°
2026-05-04 14:43 48.11554 16.56494 613 ft 20 kts 116°
2026-05-04 14:44 48.11493 16.56685 612 ft 21 kts 116°
2026-05-04 14:44 48.11426 16.56885 620 ft 22 kts 116°
2026-05-04 14:44 48.11359 16.57095 611 ft 23 kts 116°
2026-05-04 14:44 48.11306 16.57257 617 ft 15 kts 114°
2026-05-04 14:45 48.11359 16.57365 615 ft 16 kts 23°
2026-05-04 14:45 48.11461 16.57437 616 ft 17 kts 26°
2026-05-04 14:45 48.11568 16.57525 612 ft 18 kts 29°
2026-05-04 14:45 48.11692 16.57521 619 ft 19 kts 345°
2026-05-04 14:46 48.11824 16.57465 614 ft 20 kts 344°
2026-05-04 14:46 48.11944 16.57413 618 ft 14 kts 344°
2026-05-04 14:46 48.12014 16.57473 614 ft 14 kts 87°
2026-05-04 14:46 48.11991 16.57621 609 ft 15 kts 104°
2026-05-04 14:47 48.11965 16.57770 613 ft 13 kts 105°
2026-05-04 14:47 48.11901 16.57851 613 ft 14 kts 163°
2026-05-04 14:47 48.11793 16.57895 613 ft 28 kts 164°
2026-05-04 14:47 48.11384 16.58069 614 ft 91 kts 164°
2026-05-04 14:48 48.10612 16.58396 612 ft 138 kts 164°
2026-05-04 14:48 48.09612 16.58823 932 ft 151 kts 163°
2026-05-04 14:48 48.08603 16.59256 1517 ft 151 kts 165°
2026-05-04 14:48 48.07577 16.59687 1973 ft 160 kts 167°
2026-05-04 14:49 48.06441 16.60224 2199 ft 184 kts 157°
2026-05-04 14:49 48.05366 16.61428 2591 ft 204 kts 134°
2026-05-04 14:49 48.04673 16.63322 3314 ft 213 kts 111°
2026-05-04 14:49 48.04571 16.65579 3995 ft 227 kts 84°
2026-05-04 14:50 48.05211 16.67783 4655 ft 239 kts 53°
2026-05-04 14:50 48.06464 16.69529 5032 ft 257 kts 38°
2026-05-04 14:50 48.07958 16.71218 5459 ft 281 kts 36°
2026-05-04 14:50 48.09584 16.72977 6063 ft 293 kts 36°
2026-05-04 14:51 48.11248 16.74769 6886 ft 297 kts 36°
2026-05-04 14:51 48.12926 16.76590 7752 ft 300 kts 35°
2026-05-04 14:51 48.14748 16.78036 8553 ft 305 kts 17°
2026-05-04 14:51 48.16828 16.78628 9444 ft 307 kts 359°
2026-05-04 14:52 48.18943 16.78333 10201 ft 306 kts 347°
2026-05-04 14:52 48.21084 16.77768 10633 ft 322 kts 347°
2026-05-04 14:52 48.23371 16.77154 10802 ft 344 kts 347°
2026-05-04 14:52 48.25763 16.76513 11321 ft 353 kts 347°
2026-05-04 14:53 48.28195 16.75868 11989 ft 356 kts 348°
2026-05-04 14:53 48.30649 16.75220 12653 ft 360 kts 348°
2026-05-04 14:53 48.33123 16.74526 13311 ft 363 kts 343°
2026-05-04 14:53 48.35509 16.73284 13946 ft 363 kts 332°
2026-05-04 14:54 48.37759 16.71546 14580 ft 365 kts 330°
2026-05-04 14:54 48.40018 16.69771 15220 ft 367 kts 329°
2026-05-04 14:54 48.42156 16.67681 15811 ft 366 kts 317°
2026-05-04 14:54 48.43953 16.64978 16392 ft 365 kts 305°
2026-05-04 14:55 48.45329 16.61787 16984 ft 363 kts 293°
2026-05-04 14:55 48.46283 16.58273 17596 ft 364 kts 287°
2026-05-04 14:55 48.47164 16.54686 18213 ft 366 kts 288°
2026-05-04 14:55 48.48058 16.51073 18757 ft 369 kts 288°
2026-05-04 14:56 48.48958 16.47433 19295 ft 372 kts 288°
2026-05-04 14:56 48.49867 16.43764 19851 ft 375 kts 288°
2026-05-04 14:56 48.50780 16.40069 20397 ft 378 kts 288°
2026-05-04 14:56 48.51697 16.36344 20939 ft 380 kts 288°
2026-05-04 14:57 48.52616 16.32600 21506 ft 382 kts 288°
2026-05-04 14:57 48.53537 16.28832 22018 ft 384 kts 289°
2026-05-04 14:57 48.54466 16.25030 22493 ft 388 kts 289°
2026-05-04 14:57 48.55399 16.21205 23028 ft 390 kts 289°
2026-05-04 14:58 48.56340 16.17341 23457 ft 395 kts 289°
2026-05-04 14:58 48.57291 16.13434 23842 ft 398 kts 289°
2026-05-04 14:58 48.58303 16.09527 24255 ft 400 kts 291°
2026-05-04 14:58 48.59378 16.05700 24667 ft 402 kts 292°
2026-05-04 14:59 48.60526 16.01775 25068 ft 404 kts 293°
2026-05-04 14:59 48.61679 15.97887 25466 ft 406 kts 293°
2026-05-04 14:59 48.63979 15.90051 26233 ft 410 kts 293°
2026-05-04 15:00 48.65101 15.86144 26612 ft 411 kts 292°
2026-05-04 15:00 48.66234 15.82158 26984 ft 413 kts 292°
2026-05-04 15:00 48.67367 15.78155 27347 ft 415 kts 292°
2026-05-04 15:01 48.69641 15.70088 28073 ft 419 kts 292°
2026-05-04 15:01 48.70787 15.66021 28431 ft 421 kts 292°
2026-05-04 15:01 48.71939 15.61936 28779 ft 423 kts 292°
2026-05-04 15:01 48.73095 15.57831 29138 ft 425 kts 292°
2026-05-04 15:02 48.74258 15.53703 29494 ft 426 kts 292°
2026-05-04 15:02 48.75418 15.49581 29986 ft 425 kts 292°
2026-05-04 15:02 48.76572 15.45469 30429 ft 423 kts 292°
2026-05-04 15:02 48.77716 15.41375 30883 ft 421 kts 292°
2026-05-04 15:03 48.78851 15.37291 31334 ft 419 kts 292°
2026-05-04 15:03 48.79991 15.33240 31787 ft 417 kts 294°
2026-05-04 15:03 48.81413 15.29422 32272 ft 416 kts 303°
2026-05-04 15:03 48.83098 15.25864 32734 ft 414 kts 304°